• In Uzbekistan
  • List of Countries
  • For 7 days
  • Water Temperature
  • Satellite Maps
  • Weather Map
  • Weather Widgets
  • user-avatar
    Login

    Hourly Weather San Pédro

    Today, 17 October, Tuesday

    Time Temperature Precipitation Wind Pressure Humidity
    00:00 +25°C° 0.1 mm 3 mps 752 mmHg 98%
    01:00 +24°C° 0.7 mm 3 mps 751 mmHg 98%
    02:00 +24°C° 0.7 mm 3 mps 751 mmHg 99%
    03:00 +24°C° 0.7 mm 3 mps 751 mmHg 99%
    04:00 +24°C° 0.4 mm 3 mps 751 mmHg 99%
    05:00 +24°C° 0.4 mm 3 mps 751 mmHg 99%
    06:00 +24°C° 0.4 mm 2 mps 751 mmHg 99%
    07:00 +25°C° 0 mm 2 mps 752 mmHg 94%
    08:00 +27°C° 0 mm 2 mps 752 mmHg 89%
    09:00 +28°C° 0 mm 2 mps 752 mmHg 84%
    10:00 +29°C° 0 mm 3 mps 752 mmHg 78%
    11:00 +30°C° 0 mm 3 mps 752 mmHg 72%
    12:00 +33°C° 0 mm 3 mps 752 mmHg 66%
    13:00 +31°C° 0.7 mm 3 mps 751 mmHg 72%
    14:00 +30°C° 0.7 mm 3 mps 750 mmHg 79%
    15:00 +29°C° 0.7 mm 4 mps 750 mmHg 85%
    16:00 +29°C° 0 mm 4 mps 750 mmHg 87%
    17:00 +28°C° 0 mm 4 mps 750 mmHg 88%
    18:00 +27°C° 0 mm 3 mps 751 mmHg 90%
    19:00 +27°C° 0.5 mm 3 mps 751 mmHg 93%
    20:00 +26°C° 0.5 mm 3 mps 752 mmHg 95%
    21:00 +25°C° 0.5 mm 3 mps 752 mmHg 97%
    22:00 +25°C° 0.1 mm 3 mps 752 mmHg 97%
    23:00 +25°C° 0.1 mm 3 mps 752 mmHg 98%

    Tomorrow, 18 October, Wednesday

    Time Temperature Precipitation Wind Pressure Humidity
    00:00 +25°C° 0.1 mm 3 mps 752 mmHg 98%
    01:00 +25°C° 0 mm 3 mps 752 mmHg 98%
    02:00 +25°C° 0 mm 3 mps 751 mmHg 98%
    03:00 +25°C° 0 mm 3 mps 750 mmHg 99%
    04:00 +24°C° 0 mm 3 mps 751 mmHg 99%
    05:00 +24°C° 0 mm 3 mps 751 mmHg 99%
    06:00 +24°C° 0 mm 3 mps 751 mmHg 99%
    07:00 +26°C° 0 mm 3 mps 751 mmHg 94%
    08:00 +27°C° 0 mm 3 mps 752 mmHg 90%
    09:00 +28°C° 0 mm 3 mps 752 mmHg 85%
    10:00 +29°C° 0 mm 3 mps 752 mmHg 78%
    11:00 +30°C° 0 mm 4 mps 751 mmHg 71%
    12:00 +33°C° 0 mm 4 mps 751 mmHg 64%
    13:00 +33°C° 0.1 mm 4 mps 750 mmHg 66%
    14:00 +33°C° 0.1 mm 4 mps 750 mmHg 68%
    15:00 +33°C° 0.1 mm 4 mps 749 mmHg 69%
    16:00 +30°C° 0.1 mm 4 mps 749 mmHg 75%
    17:00 +29°C° 0.1 mm 4 mps 750 mmHg 81%
    18:00 +28°C° 0.1 mm 4 mps 750 mmHg 87%
    19:00 +27°C° 0 mm 4 mps 750 mmHg 90%
    20:00 +26°C° 0 mm 3 mps 751 mmHg 93%
    21:00 +25°C° 0 mm 3 mps 752 mmHg 96%
    22:00 +25°C° 0 mm 3 mps 752 mmHg 96%
    23:00 +25°C° 0 mm 3 mps 752 mmHg 97%

    Day after tomorrow, 19 October, Thursday

    Time Temperature Precipitation Wind Pressure Humidity
    00:00 +25°C° 0 mm 3 mps 752 mmHg 97%
    01:00 +25°C° 0 mm 3 mps 751 mmHg 98%
    02:00 +24°C° 0 mm 3 mps 751 mmHg 98%
    03:00 +24°C° 0 mm 3 mps 750 mmHg 99%
    04:00 +24°C° 0 mm 3 mps 750 mmHg 99%
    05:00 +24°C° 0 mm 3 mps 750 mmHg 99%
    06:00 +24°C° 0 mm 3 mps 751 mmHg 99%
    07:00 +25°C° 0 mm 3 mps 751 mmHg 93%
    08:00 +27°C° 0 mm 3 mps 752 mmHg 87%
    09:00 +28°C° 0 mm 3 mps 752 mmHg 81%
    10:00 +30°C° 0 mm 3 mps 752 mmHg 75%
    11:00 +32°C° 0 mm 4 mps 751 mmHg 68%
    12:00 +33°C° 0 mm 4 mps 751 mmHg 61%
    13:00 +33°C° 0.2 mm 4 mps 750 mmHg 65%
    14:00 +33°C° 0.2 mm 4 mps 750 mmHg 68%
    15:00 +32°C° 0.2 mm 4 mps 749 mmHg 72%
    16:00 +30°C° 0.4 mm 4 mps 749 mmHg 79%
    17:00 +28°C° 0.4 mm 4 mps 749 mmHg 86%
    18:00 +27°C° 0.4 mm 4 mps 749 mmHg 93%
    19:00 +26°C° 0.3 mm 4 mps 750 mmHg 95%
    20:00 +26°C° 0.3 mm 3 mps 751 mmHg 96%
    21:00 +25°C° 0.3 mm 3 mps 751 mmHg 98%
    22:00 +25°C° 0.1 mm 3 mps 751 mmHg 98%
    23:00 +25°C° 0.1 mm 3 mps 751 mmHg 98%

    20 October, Friday

    Time Temperature Precipitation Wind Pressure Humidity
    00:00 +25°C° 0.1 mm 2 mps 751 mmHg 99%
    01:00 +25°C° 0 mm 2 mps 750 mmHg 99%
    02:00 +25°C° 0 mm 2 mps 750 mmHg 99%
    03:00 +24°C° 0 mm 2 mps 749 mmHg 99%
    04:00 +24°C° 0 mm 2 mps 749 mmHg 99%
    05:00 +24°C° 0 mm 2 mps 750 mmHg 99%
    06:00 +24°C° 0 mm 2 mps 750 mmHg 99%
    07:00 +26°C° 0 mm 2 mps 750 mmHg 95%
    08:00 +27°C° 0 mm 2 mps 751 mmHg 91%
    09:00 +28°C° 0 mm 2 mps 751 mmHg 88%
    10:00 +29°C° 0 mm 3 mps 751 mmHg 79%
    11:00 +31°C° 0 mm 3 mps 750 mmHg 71%
    12:00 +34°C° 0 mm 3 mps 750 mmHg 62%
    13:00 +34°C° 0 mm 3 mps 749 mmHg 64%
    14:00 +33°C° 0 mm 3 mps 749 mmHg 65%
    15:00 +33°C° 0 mm 4 mps 748 mmHg 67%
    16:00 +30°C° 0.1 mm 4 mps 749 mmHg 75%
    17:00 +29°C° 0.1 mm 3 mps 749 mmHg 83%
    18:00 +27°C° 0.1 mm 3 mps 749 mmHg 90%
    19:00 +27°C° 0 mm 3 mps 750 mmHg 92%
    20:00 +26°C° 0 mm 3 mps 751 mmHg 95%
    21:00 +26°C° 0 mm 3 mps 751 mmHg 97%
    22:00 +25°C° 1 mm 3 mps 751 mmHg 97%
    23:00 +25°C° 1 mm 2 mps 751 mmHg 98%

    21 October, Saturday

    Time Temperature Precipitation Wind Pressure Humidity
    00:00 +25°C° 1 mm 2 mps 751 mmHg 98%
    01:00 +25°C° 0.2 mm 2 mps 750 mmHg 98%
    02:00 +25°C° 0.2 mm 2 mps 750 mmHg 98%
    03:00 +25°C° 0.2 mm 2 mps 749 mmHg 98%
    04:00 +24°C° 0 mm 2 mps 749 mmHg 98%
    05:00 +24°C° 0 mm 2 mps 750 mmHg 98%
    06:00 +24°C° 0 mm 2 mps 750 mmHg 98%
    07:00 +26°C° 0 mm 2 mps 750 mmHg 93%
    08:00 +27°C° 0 mm 2 mps 751 mmHg 88%
    09:00 +29°C° 0 mm 2 mps 751 mmHg 83%
    10:00 +30°C° 0 mm 3 mps 751 mmHg 77%
    11:00 +31°C° 0 mm 3 mps 750 mmHg 71%
    12:00 +33°C° 0 mm 3 mps 750 mmHg 65%
    13:00 +33°C° 0 mm 3 mps 749 mmHg 64%
    14:00 +33°C° 0 mm 3 mps 749 mmHg 62%
    15:00 +34°C° 0 mm 3 mps 748 mmHg 61%
    16:00 +31°C° 0 mm 3 mps 749 mmHg 68%
    17:00 +30°C° 0 mm 3 mps 749 mmHg 75%
    18:00 +28°C° 0 mm 3 mps 749 mmHg 83%
    19:00 +27°C° 0 mm 3 mps 750 mmHg 87%
    20:00 +26°C° 0 mm 2 mps 750 mmHg 91%
    21:00 +25°C° 0 mm 2 mps 751 mmHg 96%
    22:00 +25°C° 0 mm 2 mps 751 mmHg 97%
    23:00 +25°C° 0 mm 2 mps 751 mmHg 97%

    22 October, Sunday

    Time Temperature Precipitation Wind Pressure Humidity
    00:00 +25°C° 0 mm 2 mps 750 mmHg 98%
    01:00 +25°C° 0 mm 2 mps 750 mmHg 98%
    02:00 +25°C° 0 mm 2 mps 750 mmHg 99%
    03:00 +25°C° 0 mm 2 mps 750 mmHg 99%
    04:00 +25°C° 0.1 mm 2 mps 750 mmHg 99%
    05:00 +25°C° 0.1 mm 2 mps 750 mmHg 99%
    06:00 +24°C° 0.1 mm 2 mps 750 mmHg 99%
    07:00 +26°C° 0 mm 2 mps 751 mmHg 90%
    08:00 +28°C° 0 mm 3 mps 751 mmHg 82%
    09:00 +30°C° 0 mm 3 mps 751 mmHg 74%
    10:00 +31°C° 0 mm 3 mps 751 mmHg 70%
    11:00 +33°C° 0 mm 3 mps 750 mmHg 65%
    12:00 +34°C° 0 mm 4 mps 750 mmHg 61%
    13:00 +33°C° 0.1 mm 4 mps 749 mmHg 63%
    14:00 +33°C° 0.1 mm 4 mps 749 mmHg 66%
    15:00 +33°C° 0.1 mm 4 mps 748 mmHg 68%
    16:00 +30°C° 0.1 mm 4 mps 749 mmHg 74%
    17:00 +29°C° 0.1 mm 4 mps 749 mmHg 79%
    18:00 +28°C° 0.1 mm 4 mps 749 mmHg 85%
    19:00 +27°C° 0.1 mm 4 mps 750 mmHg 89%
    20:00 +26°C° 0.1 mm 3 mps 750 mmHg 92%
    21:00 +26°C° 0.1 mm 3 mps 751 mmHg 96%
    22:00 +25°C° 0.1 mm 3 mps 751 mmHg 96%
    23:00 +25°C° 0.1 mm 3 mps 751 mmHg 97%
    Show more